Location: Unspecified
(40.8819°N, 0.0000°E)
Time: 02:15:49
(UTC+00:00)

ACS3 Solar Sail - Visible Passes

Search period start: 08 June 2026 00:00
Search period end: 18 June 2026 00:00
Orbit: 879 x 951 km, 97.2° (Epoch: 7 June)

Date Brightness Start Highest point End Pass type
(mag) Time Alt. Az. Time Alt. Az. Time Alt. Az.
8 Jun 1.9 00:58:24 10° N 01:03:59 56° WNW 01:05:12 47° WSW visible
8 Jun 3.0 23:24:00 10° NE 23:28:33 24° E 23:28:58 23° E visible
9 Jun 2.1 01:05:29 10° N 01:10:59 48° WNW 01:12:20 40° WSW visible
9 Jun 2.8 23:30:42 10° NE 23:35:34 28° E 23:36:01 27° E visible
10 Jun 2.4 01:12:31 10° N 01:17:52 42° WNW 01:19:23 35° WSW visible
10 Jun 2.6 23:37:23 10° NNE 23:42:30 32° E 23:43:00 32° ESE visible
11 Jun 2.6 01:19:29 10° N 01:24:41 36° WNW 01:26:21 30° WSW visible
11 Jun 2.4 23:44:01 10° NNE 23:49:20 37° E 23:49:53 36° ESE visible
12 Jun 2.8 01:26:25 10° N 01:31:24 31° WNW 01:33:14 26° W visible
12 Jun 2.2 23:50:36 10° NNE 23:56:05 43° E 23:56:42 42° ESE visible
13 Jun 3.0 01:33:17 10° NNW 01:38:02 27° WNW 01:40:03 22° W visible
13 Jun 2.0 23:57:09 10° NNE 00:02:46 50° E 00:03:26 48° ESE visible
14 Jun 3.1 01:40:05 10° NNW 01:44:36 24° WNW 01:46:46 19° W visible
15 Jun 1.8 00:03:37 10° NNE 00:09:21 58° E 00:10:05 54° SE visible
15 Jun 3.3 01:46:52 10° NNW 01:51:03 21° WNW 01:53:25 17° W visible
16 Jun 1.7 00:10:03 10° NNE 00:15:50 67° E 00:16:40 59° SE visible
16 Jun 3.5 01:53:36 10° NNW 01:57:26 19° WNW 01:59:59 14° W visible
17 Jun 1.6 00:16:25 10° NNE 00:22:15 77° E 00:23:09 63° SSE visible
17 Jun 3.6 02:00:19 10° NNW 02:03:44 16° WNW 02:06:28 12° W visible
17 Jun 3.8 22:43:53 10° ENE 22:45:40 11° E 22:46:15 11° E visible
